Home > Time Zones > World Clock > Weather > Belgium > Spa > Past weeks

Flag for Belgium Weather past 2 weeks in Spa, Belgium

Now
60 °F

Partly sunny.


Feels Like: 61 °F
Forecast: 42 / 66 °F
Wind: 3 mph from Northwest

Location: Spa / La Sauveniere

Current Time: May 22, 2015 at 2:25:53 PM

Latest Report: May 22, 2015 at 2:00 PM


Visibility: 19 mi

Pressure: 30.28 "Hg

Humidity: 51%

Dew point: 41 °F

Location of SpaLocation

Historic Weather in Spa — Graph

°F

Spa temperature yesterday

Maximum temperature yesterday: 57 °F (at 5:00 PM)
Minimum temperature yesterday: 40 °F (at 2:00 AM)
Average temperature yesterday: 48 °F

Past Weeks' High & Low Weather Summary

 TemperatureHumidityPressure
High76 °F (May 11, 6:00 PM)100% (May 15, 4:00 AM)30.39 "Hg (May 15, 4:00 AM)
Low39 °F (May 16, 6:00 AM)29% (May 13, 3:00 PM)29.70 "Hg (May 18, 9:00 PM)
Average52 °F70%30.10 "Hg
* Reported May 7 1:00 PM — May 22 1:00 PM, Spa, Weather by CustomWeather, © 2015

Note: Actual official high and low records may vary slightly from our data, if they occured in-between our weather recording intervals... More about our weather records

Advertising

Spa weather history for previous 24 hours

 ConditionsComfort  
Time TempWeatherWind HumidityBarometerVisibility
1:00 PM
Fri, May 22
56 °FScattered clouds.2 mph58%30.32 "Hg16 mi
12:00 PM56 °FOvercast.N/A56%30.33 "Hg18 mi
11:00 AM55 °FPartly sunny.2 mph59%30.34 "Hg12 mi
10:00 AM52 °FSunny.1 mph59%30.36 "Hg19 mi
9:00 AM51 °FSunny.2 mph63%30.35 "Hg22 mi
8:00 AM50 °FSunny.1 mph69%30.35 "Hg22 mi
7:00 AM47 °FSunny.2 mph72%30.36 "Hg22 mi
6:00 AM46 °FSunny.2 mph76%30.36 "Hg28 mi
5:00 AM46 °FClear.2 mph79%30.37 "Hg25 mi
4:00 AM46 °FClear.1 mph78%30.37 "Hg28 mi
3:00 AM45 °FClear.1 mph82%30.38 "Hg28 mi
2:00 AM45 °FClear.1 mph84%30.39 "Hg22 mi
1:00 AM45 °FClear.1 mph84%30.39 "Hg17 mi
12:00 AM47 °FClear.N/A80%30.39 "Hg16 mi
10:00 PM
Thu, May 21
51 °FPassing clouds.No wind70%30.35 "Hg22 mi
9:00 PM53 °FOvercast.1 mph65%30.33 "Hg25 mi
8:00 PM54 °FOvercast.1 mph59%30.32 "Hg22 mi
7:00 PM56 °FOvercast.6 mph52%30.31 "Hg19 mi
6:00 PM55 °FSunny.2 mph54%30.31 "Hg17 mi
5:00 PM57 °FPassing clouds.2 mph51%30.30 "Hg15 mi
4:00 PM55 °FPartly sunny.3 mph51%30.31 "Hg18 mi
3:00 PM55 °FSunny.2 mph51%30.30 "Hg19 mi
2:00 PM55 °FPartly sunny.N/A54%30.30 "Hg18 mi
Weather by CustomWeather, © 2015

See weather overviewHow to use our weather pages